Location: Rancho Del Sol Observatory
(38.7214°N, 120.6350°W)
Time: 05:41:59
(UTC-08:00)

Courier 1B Rocket - Pass Details

Date: 04 February 2020
Orbit: 920 x 1202 km, 28.2° (Epoch: 29 February)

Event Time Altitude Azimuth Distance (km) Brightness Sun altitude
Rises 05:19:20 0° 202° (SSW) 4,005 8.0 -21.1°
Reaches altitude 10° 05:23:56 10° 178° (S) 3,088 7.7 -20.2°
Maximum altitude 05:27:18 13° 151° (SSE) 2,859 7.9 -19.5°
Drops below altitude 10° 05:30:43 10° 125° (SE) 3,124 8.5 -18.9°
Sets 05:35:24 0° 101° (E) 4,091 10.0 -18.0°
